Location: Newark
(7.0858°N, 171.3717°E)
Time: 03:04:41
(UTC+00:00)

Transit 2A - Pass Details

Date: 02 December 2020
Orbit: 598 x 960 km, 66.7° (Epoch: 20 January)

Event Time Altitude Azimuth Distance (km) Brightness Sun altitude
Rises 14:18:42 0° 9° (N) 2,975 - -58.6°
Reaches altitude 10° 14:22:04 10° 34° (NE) 2,007 - -57.9°
Maximum altitude 14:24:26 14° 66° (ENE) 1,720 - -57.4°
Drops below altitude 10° 14:26:45 10° 98° (E) 1,952 - -56.9°
Sets 14:29:56 0° 124° (SE) 2,836 - -56.2°
